Preview of NWS' New Version of Forecast
This preview is not operational and should not be used for support decisions.

Regional Weather Roundup (RWR)

Issued by National Weather Service (NWS)

                            
000
ASUS42 KTBW 230418
RWRFL 
FLORIDA REGIONAL WEATHER ROUNDUP
NATIONAL WEATHER SERVICE TAMPA BAY RUSKIN FL
1200 AM EDT FRI AUG 23 2019

NOTE: "FAIR" INDICATES FEW OR NO CLOUDS BELOW 12,000 FEET WITH NO
SIGNIFICANT WEATHER AND/OR OBSTRUCTIONS TO VISIBILITY.

FLZ001>010-012>015-112-114-115-230500-
PANHANDLE FLORIDA
  
CITY           SKY/WX    TMP DP  RH WIND       PRES   REMARKS
PENSACOLA      FAIR      82  79  90 S5        30.01S                  
PENSACOLA NAS  FAIR      82  77  84 S7        30.01S                  
MILTON NAS     FAIR      77  76  96 CALM      30.02                   
CRESTVIEW      FAIR      77  75  93 CALM      30.04S                  
DUKE FIELD     FAIR      79  76  92 S6        30.02F                  
VALPARAISO     FAIR      82  75  78 S5        30.01F                  
MARY ESTHER    PTCLDY    83  76  79 SW6       30.00                   
TRI COUNTY     FAIR      79  76  90 CALM      30.04S                  
PANAMA CITY    FAIR      79  76  90 CALM      30.02F                  
TYNDALL AFB    FAIR      82  76  83 S5        30.02S                  
APALACHICOLA   FAIR      80  75  84 N3        30.03S                  

STATION/POSITION SKY/WX   TEMP    WIND        PRES    WAVE   SWELL
                          AIR SEA DIR/SP/G            HT/PER HT/PER
                          (F)     (DEG/KT/KT) (MB)    (FT/S) (FT/S)
30.1N   87.6W              84 86  180/  8/ 10 1016.3R   1/ 7   2/ 7
29.2N   88.2W              84 86  220/ 10/ 12 1016.2R   2/ 5   2/ 5
28.8N   86.0W                 85  190/  8/ 10 1016.5S   1/ 5   2/ 5
PANAMA CITY BEAC           83 86  180/  8/  9 1017.4
TOWER C                    83     190/  4/  5 1017.0F
28.5N   84.5W              84      CALM  /  2 1017.3S   1/ 7   2/ 7

$$
FLZ011-016>038-118-127-128-134-139-239-230500-
NORTH FLORIDA
  
CITY           SKY/WX    TMP DP  RH WIND       PRES   REMARKS
MARIANNA       FAIR      78  72  81 CALM      30.03S                  
TALLAHASSEE    FAIR      79  78  97 CALM      30.03S                  
PERRY          FAIR      79  78  97 CALM      30.04S                  
LIVE OAK       MOCLDY    81  77  89 CALM      30.05S                  
CROSS CITY     MOCLDY    81  79  95 CALM      30.05S                  
LAKE CITY      FAIR      77  72  83 CALM      30.07R                  
GAINESVILLE    FAIR      76  73  91 E3        30.08R                  
WILLISTON      FAIR      78  75  91 CALM      30.05S                  
MAYPORT NAS    FAIR      81  77  88 S6        30.06R                  
JACKSONVILLE   FAIR      79  76  90 S3        30.05R                  
JAX NAS        FAIR      83  76  79 S3        30.06                   
JAX CECIL      FAIR      77  75  94 CALM      30.06R                  
FERNANDINA BEA FAIR      81  78  88 MISG      30.06R                  
ST AUGUSTINE   FAIR      80  76  87 MISG      30.07S                  
PALM COAST     FAIR      76  74  94 CALM      30.05S                  

STATION/POSITION SKY/WX   TEMP    WIND        PRES    WAVE   SWELL
                          AIR SEA DIR/SP/G            HT/PER HT/PER
                          (F)     (DEG/KT/KT) (MB)    (FT/S) (FT/S)
SHELL POINT      NOT AVBL
KEATON BEACH               84     260/  2/  3 1017.2R
CEDAR KEY                  84      CALM  /  2 1017.5R
FERNANDINA                 86 86              1018.5
30.7N   81.3W                 84                N/A     2/ 7
MAYPORT                    82 85  140/  4/  7 1018.1
31.4N   80.9W              83 83  160/  6/  8 1017.9R   2/10   2/10
ST AUGUSTINE               82 83  150/  6/  7 1017.9R

$$
FLZ040-043>046-052-053-057-058-063-144-230500-
INTERIOR CENTRAL FLORIDA
  
CITY           SKY/WX    TMP DP  RH WIND       PRES   REMARKS
OCALA          FAIR      79  74  84 CALM      30.06R                  
LEESBURG       FAIR      80  75  84 E3        30.05S                  
SANFORD        FAIR      79  76  90 CALM      30.04S                  
ORLANDO EXEC   FAIR      79  74  84 E5        30.05R                  
ORLANDO INTL   FAIR      79  74  84 E5        30.05S                  
KISSIMMEE      FAIR      80  76  87 E5        30.05S                  
WINTER HAVEN   FAIR      81  74  79 E6        30.05S                  
SEBRING        FAIR      78  75  92 CALM      30.03S                  
OKEECHOBEE     FAIR      75  72  88 E3        30.02F                  

$$
FLZ041-047-054-059-064-141-147-230500-
EAST CENTRAL FLORIDA
  
CITY           SKY/WX    TMP DP  RH WIND       PRES   REMARKS
DAYTONA BEACH  FAIR      80  76  87 CALM      30.04F                  
DELAND         FAIR      75  73  94 CALM      30.05S                  
JFK SPACE CTR  FAIR      77  59  52 CALM      30.03S                  
CAPE CANAVERAL FAIR      79  79  99 CALM      30.02F                  
PATRICK AFB    FAIR      83  79  88 E8        30.03S                  
MELBOURNE      FAIR      84  75  74 E10       30.02F                  
VERO BEACH     FAIR      77  75  93 CALM      30.02F                  
FT PIERCE      FAIR      81  74  79 E5        30.02S                  
STUART         FAIR      82  73  74 E8        30.02F                  

STATION/POSITION SKY/WX   TEMP    WIND        PRES    WAVE   SWELL
                          AIR SEA DIR/SP/G            HT/PER HT/PER
                          (F)     (DEG/KT/KT) (MB)    (FT/S) (FT/S)
28.5N   80.2W              84 83  100/ 10/ 12 1016.9R   2/ 7   2/ 7
28.9N   78.5W              84 86   80/ 12/ 16 1017.5R   3/ 8   2/ 8
TRIDENT PIER               81 84   70/  3/  6 1018.4F
28.4N   80.5W                 82                N/A     2/ 4
27.5N   80.2W                 83                N/A     3/ 5

$$
FLZ050-056-061-142-242-148-248-149-249-151-251-155-255-
160-260-230500-
WEST CENTRAL FLORIDA
  
CITY           SKY/WX    TMP DP  RH WIND       PRES   REMARKS
CRYSTAL RIVER  FAIR      79  72  78 CALM      30.05R                  
INVERNESS      FAIR      77  77 100 CALM      30.05S                  
BROOKSVILLE    FAIR      78  74  87 SE3       30.05R                  
CLEARWATER AIR FAIR      82  73  74 SE6       30.03F                  
ST PETE CLEARW FAIR      83  73  72 SE7       30.03F                  
TAMPA INTL     FAIR      83  74  74 E5        30.04S                  
PLANT CITY     FAIR      79  75  89 CALM      30.06S                  
MACDILL AFB    FAIR      81  74  80 SE6       30.02F                  
PETER O KNIGHT MOCLDY    82  77  83 SE3       30.04S                  
ST PETERSBURG  FAIR      84  75  74 SE10      30.01F                  
SARASOTA       FAIR      81  74  79 E5        30.01F                  
VENICE         FAIR      81  75  83 E3        30.03F                  

STATION/POSITION SKY/WX   TEMP    WIND        PRES    WAVE   SWELL
                          AIR SEA DIR/SP/G            HT/PER HT/PER
                          (F)     (DEG/KT/KT) (MB)    (FT/S) (FT/S)
27.3N   84.2W                 86                N/A     2/ 6
CLEARWATER BEACH           85 89  130/  6/  9 1017.3
MIDDLE TAMPA BAY           82     170/  5/  8 1017.4
VENICE                     81 86   80/  3/  4 1016.5F

$$
FLZ066-069-070-075>078-162-262-165-265-230500-
SOUTHWEST FLORIDA AND KEYS
  
CITY           SKY/WX    TMP DP  RH WIND       PRES   REMARKS
PUNTA GORDA    FAIR      78  78 100 CALM      30.04R                  
FT MYERS       FAIR      79  75  87 CALM      30.01S                  
SOUTHWEST INTL FAIR      78  75  90 CALM      30.02S                  
NAPLES         FAIR      81  77  88 N3        30.00F                  
MARCO ISLAND   FAIR     N/A N/A N/A N5          N/A                   
IMMOKALEE        N/A    N/A N/A N/A MISG        N/A                   
MARATHON       FAIR      84  75  74 NE7       29.97F                  
KEY WEST NAS   FAIR      85  75  72 E6        29.99S                  
KEY WEST INTL  FAIR      84  75  74 E6        29.99F                  

STATION/POSITION SKY/WX   TEMP    WIND        PRES    WAVE   SWELL
                          AIR SEA DIR/SP/G            HT/PER HT/PER
                          (F)     (DEG/KT/KT) (MB)    (FT/S) (FT/S)
NAPLES                     81 87              1016.4
26.0N   85.6W              85 86   40/  4/  6 1016.3F   1/ 7   2/ 7
DRY TORTUGAS               84      20/  8/ 10 1016.1S
SAND KEY                   84      50/  6/ 10 1014.3F
SOMBRERO KEY               84      40/ 10/ 13 1015.3
LONG KEY                   83                 1014.0

$$
FLZ067-068-071>074-168-172>174-230500-
SOUTHEAST FLORIDA 
  
CITY           SKY/WX    TMP DP  RH WIND       PRES   REMARKS
W PALM BEACH   FAIR      83  73  72 E10       30.00F                  
FT LAUDER-EXEC FAIR      81  74  79 NE5       29.98F                  
FT LAUDERDALE  FAIR      82  74  76 E10       29.97F                  
POMPANO BEACH  FAIR      84  74  71 NE10      29.98F                  
PEMBROKE PINES FAIR      81  76  84 NE5       29.99F                  
OPA LOCKA      FAIR      82  75  79 NE5       29.98F                  
MIAMI          FAIR      83  73  72 NE6       29.98F                  
WEST KENDALL   FAIR      81  75  82 NE6       29.98F                  
HOMESTEAD      FAIR      81  75  83 N6        29.96F                  

STATION/POSITION SKY/WX   TEMP    WIND        PRES    WAVE   SWELL
                          AIR SEA DIR/SP/G            HT/PER HT/PER
                          (F)     (DEG/KT/KT) (MB)    (FT/S) (FT/S)
VIRGINIA KEY               82 89   20/  4/ 10 1014.8
LAKE WORTH                 83 86   60/ 14/ 17 1017.0F
FOWEY ROCKS                83 86   50/ 13/ 14 1015.1F
SETTLEMENT POINT           80     130/  5/  6 1015.8F

$$